Home > Weather > Fort Collins > Past weeks

Flag for USA Weather for the Past 2 Weeks in Fort Collins, Colorado, USA

Now
54 °F

Sunny.


Feels Like: 53 °F
Forecast: 26 / 58 °F
Wind: 5 mph from West

Location: Fort Collins-Loveland Municipal Airport

Current Time: May 2, 2016 at 1:45:26 PM

Latest Report: May 2, 2016 at 1:15 PM


Visibility: 10 mi

Pressure: 30.19 "Hg (25.16 "Hg at 1522m altitude)

Humidity: 28%

Dew Point: 21 °F

Location of Fort CollinsLocation

Historic Weather in Fort Collins — Graph

°F

Fort Collins Temperature Yesterday

Maximum temperature yesterday: 46 °F (at 3:35 PM)
Minimum temperature yesterday: 34 °F (at 7:15 AM)
Average temperature yesterday: 39 °F

High & Low Weather Summary for the Past Weeks

 TemperatureHumidityPressure
High79 °F (Apr 22, 4:15 PM)93% (Apr 20, 5:55 AM)30.36 "Hg (Apr 20, 5:55 AM)
Low27 °F (May 2, 2:35 AM)23% (Apr 22, 4:35 PM)29.53 "Hg (Apr 25, 5:15 PM)
Average45 °F66%30.00 "Hg
* Reported Apr 17 12:15 PM — May 2 12:55 PM, Fort Collins, Weather by CustomWeather, © 2016

Note: Actual official high and low records may vary slightly from our data, if they occured in-between our weather recording intervals... More about our weather records

Advertising

Fort Collins Weather History for the Previous 24 Hours

Scroll right to see more
 ConditionsComfort  
Time TempWeatherWind HumidityBarometerVisibility
12:55 PM
Mon, May 2
55 °FSunny.No wind28%30.20 "Hg10 mi
12:35 PM54 °FSunny.No wind30%30.21 "Hg10 mi
12:15 PM52 °FSunny.3 mph28%30.22 "Hg10 mi
11:55 AM48 °FSunny.5 mph40%30.23 "Hg10 mi
11:35 AM48 °FSunny.3 mph40%30.23 "Hg10 mi
11:15 AM46 °FSunny.6 mph43%30.23 "Hg10 mi
10:55 AM46 °FSunny.No wind40%30.24 "Hg10 mi
10:35 AM46 °FSunny.No wind43%30.25 "Hg10 mi
10:15 AM45 °FSunny.3 mph46%30.25 "Hg10 mi
9:55 AM43 °FSunny.3 mph46%30.25 "Hg10 mi
9:35 AM43 °FSunny.No wind49%30.26 "Hg10 mi
9:15 AM39 °FSunny.No wind61%30.27 "Hg10 mi
8:55 AM37 °FSunny.No wind65%30.27 "Hg10 mi
8:35 AM37 °FSunny.No wind60%30.27 "Hg10 mi
8:15 AM36 °FSunny.3 mph65%30.28 "Hg10 mi
7:55 AM34 °FSunny.5 mph70%30.28 "Hg10 mi
7:35 AM32 °FSunny.5 mph75%30.27 "Hg10 mi
7:15 AM32 °FSunny.No wind75%30.27 "Hg10 mi
6:55 AM30 °FClear.No wind80%30.27 "Hg10 mi
6:35 AM28 °FClear.No wind74%30.26 "Hg10 mi
6:15 AM27 °FClear.No wind80%30.25 "Hg10 mi
5:55 AM28 °FClear.5 mph74%30.25 "Hg10 mi
5:35 AM30 °FClear.6 mph80%30.25 "Hg10 mi
5:15 AM30 °FClear.5 mph80%30.25 "Hg10 mi
4:55 AM30 °FClear.3 mph80%30.25 "Hg10 mi
4:35 AM30 °FClear.5 mph80%30.25 "Hg10 mi
4:15 AM30 °FClear.No wind86%30.26 "Hg10 mi
3:55 AM30 °FClear.No wind86%30.26 "Hg10 mi
3:35 AM30 °FClear.No wind86%30.26 "Hg10 mi
3:15 AM30 °FClear.No wind86%30.27 "Hg10 mi
2:55 AM28 °FClear.No wind86%30.27 "Hg10 mi
2:35 AM27 °FClear.No wind80%30.28 "Hg10 mi
1:55 AM30 °FClear.8 mph80%30.28 "Hg10 mi
1:15 AM32 °FClear.7 mph75%30.29 "Hg10 mi
12:55 AM32 °FClear.7 mph75%30.29 "Hg10 mi
12:35 AM34 °FClear.7 mph70%30.29 "Hg10 mi
12:15 AM34 °FClear.6 mph70%30.29 "Hg10 mi
11:15 PM
Sun, May 1
36 °FClear.6 mph70%30.30 "Hg10 mi
10:55 PM36 °FClear.6 mph70%30.30 "Hg10 mi
10:15 PM37 °FClear.No wind70%30.30 "Hg10 mi
9:55 PM39 °FClear.No wind65%30.30 "Hg10 mi
8:55 PM39 °FSunny.No wind61%30.29 "Hg10 mi
8:35 PM39 °FSunny.No wind61%30.29 "Hg10 mi
7:55 PM41 °FSunny.No wind53%30.29 "Hg10 mi
7:35 PM41 °FSunny.No wind57%30.29 "Hg10 mi
7:15 PM41 °FSunny.No wind57%30.28 "Hg10 mi
6:55 PM43 °FPassing clouds.No wind49%30.28 "Hg10 mi
6:35 PM45 °FPartly sunny.No wind49%30.28 "Hg10 mi
6:15 PM45 °FOvercast.No wind49%30.29 "Hg10 mi
5:55 PM45 °FOvercast.No wind49%30.29 "Hg10 mi
5:35 PM45 °FOvercast.6 mph49%30.29 "Hg10 mi
4:55 PM45 °FOvercast.No wind49%30.29 "Hg10 mi
4:35 PM45 °FOvercast.No wind49%30.28 "Hg10 mi
3:55 PM46 °FOvercast.6 mph50%30.29 "Hg10 mi
3:35 PM46 °FOvercast.6 mph50%30.29 "Hg10 mi
3:15 PM45 °FOvercast.6 mph49%30.29 "Hg10 mi
2:55 PM43 °FMore clouds than sun.9 mph53%30.29 "Hg10 mi
2:35 PM43 °FOvercast.7 mph53%30.30 "Hg10 mi
2:15 PM43 °FOvercast.7 mph53%30.30 "Hg10 mi
1:55 PM43 °FOvercast.5 mph53%30.30 "Hg10 mi
1:35 PM43 °FMostly cloudy.6 mph53%30.31 "Hg10 mi
1:15 PM41 °FMostly cloudy.5 mph53%30.31 "Hg10 mi
Weather by CustomWeather, © 2016

See weather overviewHow to use our weather pages